Regional Weather Roundup
Issued by NWS

Home | Current Version | Previous Version | Graphics & Text | Print | Product List | Glossary On
Versions: 1 2 3 4 5 6 7 8 9 10 11 12 13 14 15 16 17 18 19 20 21 22 23 24 25 26 27 28 29 30 31 32 33 34 35 36 37 38 39 40 41 42 43 44 45 46 47 48 49 50
000
ASUS44 KMEG 272010
RWRTN
TENNESSEE HOURLY STATE WEATHER ROUNDUP
NATIONAL WEATHER SERVICE MEMPHIS TN
200 PM CST SAT DEC 27 2014

TNZ002-004-019-021-049-052-054-088>092-272100-
WEST TENNESSEE

CITY           SKY/WX    TMP DP  RH WIND       PRES   REMARKS
MEMPHIS INTL   CLOUDY    56  53  90 CALM      30.07F
NWS MEMPHIS      N/A     54 N/A N/A MISG        N/A
JACKSON        CLOUDY    52  50  93 CALM      30.10F FOG
DYERSBURG      CLOUDY    50  39  66 CALM      30.11S
UNION CITY     CLOUDY    48  48 100 SE3       30.09F
PARIS          CLOUDY    48  48 100 CALM      30.12R
HUNTINGDON     CLOUDY    49  48  96 S5        30.11F
LEXINGTON      CLOUDY    48  46  93 S7        30.08F
SAVANNAH       CLOUDY    48  48 100 SE3       30.11F
$$

TNZ008-025-027-028-033-062-065-066-272100-
NORTH MIDDLE TENNESSEE

CITY           SKY/WX    TMP DP  RH WIND       PRES   REMARKS
NASHVILLE      CLOUDY    51  47  86 S7        30.14F
CLARKSVILLE    LGT RAIN  50  49  96 S5        30.12F FOG
SMYRNA         CLOUDY    51  46  83 S8        30.16F
COOKEVILLE     MOSUNNY   57  37  47 SW8       30.15S
CROSSVILLE     PTSUNNY   52  35  52 VRB3      30.16F
$$

TNZ061-075-076-078-094-096-097-272100-
SOUTH MIDDLE TENNESSEE

CITY           SKY/WX    TMP DP  RH WIND       PRES   REMARKS
FAYETTEVILLE   CLOUDY    52  39  62 MISG      30.13F
TULLAHOMA      CLOUDY    52  39  62 S9        30.15F
WINCHESTER     CLOUDY    54  39  58 S7        30.16F
MCMINNVILLE    CLOUDY    54  41  62 CALM      30.16S
COLUMBIA       CLOUDY   N/A N/A N/A CALM      30.11S
SHELBYVILLE    CLOUDY    50  46  87 S6        30.15F
$$

TNZ017-018-042-046-047-272100-
NORTHEAST TENNESSEE

CITY           SKY/WX    TMP DP  RH WIND       PRES   REMARKS
TRI CITIES     CLOUDY    56  30  37 CALM      30.20F
ELIZABETHTON   CLOUDY    55  30  38 W5        30.20F
$$

TNZ012-013-036-069-073-074-272100-
CENTRAL EAST TENNESSEE

CITY           SKY/WX    TMP DP  RH WIND       PRES   REMARKS
KNOXVILLE      CLOUDY    52  39  61 N3        30.18F
OAK RIDGE      CLOUDY    54  38  54 W7        30.21F
GATLINBURG     MOCLDY    50  37  62 E3        30.19F
MORRISTOWN     CLEAR     54  37  54 CALM      30.20F
$$

TNZ083-085-099-272100-
SOUTHEAST TENNESSEE

CITY           SKY/WX    TMP DP  RH WIND       PRES   REMARKS
CHATTANOOGA    PTSUNNY   56  41  57 S6        30.19F
$$

SKY/WX REPORTED AS FAIR MEANS FEW OR NO CLOUDS BELOW
12 THOUSAND FEET.



USA.gov is the U.S. government's official web portal to all federal, state and local government web resources and services.